Regional Weather Roundup
Issued by NWS

Home | Current Version | Previous Version | Text Only | Print | Product List | Glossary On
Versions: 1 2 3 4 5 6 7 8 9 10 11 12 13 14 15 16 17 18 19 20 21 22 23 24 25 26 27 28 29 30 31 32 33 34 35 36 37 38 39 40 41 42 43 44 45 46 47 48 49 50
190
ASUS44 KJAN 161710
RWRMS

MISSISSIPPI HOURLY WEATHER ROUNDUP
NATIONAL WEATHER SERVICE JACKSON MS
1200 PM CDT WED APR 16 2014

NOTE: "FAIR: INDICATES FEW OR NO CLOUDS BELOW 12,000 FEET WITH NO
SIGNIFICANT WEATHER AND/OR OBSTRUCTIONS TO VISIBILITY.

MSZ001>002-007>008-010>013-018>021-025>028-034>036-161800-
NORTHWEST MISSISSIPPI

CITY           SKY/WX    TMP DP  RH WIND       PRES   REMARKS
CLARKSDALE       N/A     54  30  40 E9        30.26F
CLEVELAND      FAIR      52  32  46 E8        30.26F
GREENWOOD      SUNNY     55  26  32 E7        30.25F
GREENVILLE     SUNNY     54  34  46 SE10      30.25F
GRENADA        FAIR      52  30  43 SE8       30.27F
OLIVE BRANCH   MOSUNNY   50  25  37 E9        30.26F
OXFORD         FAIR      52  23  32 CALM      30.27F
TUNICA         SUNNY     52  30  43 E8        30.27F
$$

MSZ003>006-009-014>017-022>024-029>033-037>039-161800-
NORTHEAST MISSISSIPPI

CITY           SKY/WX    TMP DP  RH WIND       PRES   REMARKS
BELMONT        FAIR      53  27  36 CALM      30.26F
COLUMBUS AFB   SUNNY     55  25  31 VRB3      30.26F
CORINTH        FAIR      52  23  32 NE7       30.27F
GOLDN TRIANGLE SUNNY     54  28  37 NE8       30.29F
STARKVILLE     FAIR      52  30  43 CALM      30.26F
TUPELO         SUNNY     52  25  35 VRB6      30.26F
$$

MSZ040-058-161800-
CENTRAL MISSISSIPPI

CITY           SKY/WX    TMP DP  RH WIND       PRES   REMARKS
JACKSON INTL   MOSUNNY   55  27  34 N6        30.24F
JACKSON HAWKNS SUNNY     55  26  32 S6        30.24F
MERIDIAN KEY   SUNNY     55  26  32 NE5       30.24F
MERIDIAN NAS   SUNNY     54  28  36 NE8       30.24F
RAYMOND        FAIR      55  50  82 CALM      30.24F
VICKSBURG      SUNNY     53  32  44 VRB3      30.26F
$$

MSZ059>079-161800-
SOUTH MISSISSIPPI

CITY           SKY/WX    TMP DP  RH WIND       PRES   REMARKS
BROOKHAVEN     FAIR      54  32  43 S3        30.25F
COLUMBIA       FAIR      55  30  38 MISG      30.23F
HATTIESBURG    SUNNY     56  31  38 CALM      30.24F
MCCOMB         SUNNY     53  29  39 CALM      30.24F
NATCHEZ        SUNNY     55  30  38 NE3       30.24F
PINE BELT      SUNNY     54  27  35 SE6       30.24F
$$

MSZ080>082-161800-
COASTAL MISSISSIPPI

CITY           SKY/WX    TMP DP  RH WIND       PRES   REMARKS
BAY ST LOUIS   SUNNY     57  27  30 SE6       30.23F
BILOXI         SUNNY     57  32  38 S6        30.22F
PASCAGOULA     SUNNY     58  31  35 E3        30.23F
GULFPORT       SUNNY     59  29  31 NE7       30.22F
$$



USA.gov is the U.S. government's official web portal to all federal, state and local government web resources and services.